Location: ECC Obs
(38.4314°N, 90.9815°W)
Time: 04:05:55
(UTC-05:00)

deb Explorer IX - All Passes

Search period start: 28 March 2020 00:00
Search period end: 07 April 2020 00:00
Orbit: 547 x 1101 km, 38.8° (Epoch: 27 March)

Date Brightness Start Highest point End Pass type
(mag) Time Alt. Az. Time Alt. Az. Time Alt. Az.
28 Mar - 01:12:47 10° W 01:19:31 75° SSW 01:26:49 10° ESE night (unlit)
28 Mar - 03:00:18 10° W 03:06:38 36° SSW 03:13:08 10° SSE night (unlit)
28 Mar - 19:31:47 10° SSW 19:35:45 22° SE 19:40:13 10° E daylight
28 Mar - 21:16:41 10° WSW 21:22:10 65° SSE 21:28:36 10° E visible
28 Mar - 23:03:20 10° W 23:09:27 86° N 23:16:28 10° E visible
29 Mar - 00:50:21 10° W 00:56:57 75° SSW 01:04:11 10° ESE night (unlit)
29 Mar - 02:37:49 10° W 02:44:03 35° SSW 02:50:32 10° SSE night (unlit)
29 Mar - 19:09:30 10° SSW 19:13:19 22° SE 19:17:35 10° E daylight
29 Mar - 20:54:22 10° WSW 20:59:41 65° SSE 21:05:58 10° E visible
29 Mar - 22:40:59 10° W 22:46:56 86° N 22:53:49 10° E visible
30 Mar - 00:27:57 10° W 00:34:22 74° SSW 00:41:33 10° ESE night (unlit)
30 Mar - 02:15:22 10° W 02:21:28 34° SSW 02:27:54 10° SSE night (unlit)
30 Mar - 18:47:12 10° SSW 18:50:53 21° SE 18:54:59 10° E daylight
30 Mar - 20:32:04 10° WSW 20:37:13 65° SSE 20:43:20 10° E visible
30 Mar - 22:18:39 10° W 22:24:25 86° N 22:31:10 10° E visible
31 Mar - 00:05:33 10° W 00:11:50 73° SSW 00:18:54 10° ESE visible
31 Mar - 01:52:56 10° W 01:58:53 33° SSW 02:05:15 10° SSE night (unlit)
31 Mar - 18:24:55 10° SSW 18:28:28 21° SE 18:32:24 10° E daylight
31 Mar - 20:09:47 10° WSW 20:14:47 65° SSE 20:20:43 10° E visible
31 Mar - 21:56:20 10° W 22:01:56 86° N 22:08:32 10° E visible
31 Mar - 23:43:11 10° W 23:49:17 72° SSW 23:56:16 10° ESE visible
01 Apr - 01:30:31 10° W 01:36:19 33° SSW 01:42:34 10° SSE night (unlit)
01 Apr - 18:02:38 10° SSW 18:06:03 21° SE 18:09:50 10° E daylight
01 Apr - 19:47:29 10° WSW 19:52:21 65° SSE 19:58:06 10° E visible
01 Apr - 21:34:01 10° W 21:39:27 86° N 21:45:53 10° E visible
01 Apr - 23:20:48 10° W 23:26:45 71° SSW 23:33:36 10° ESE visible
02 Apr - 01:08:07 10° W 01:13:45 32° SSW 01:19:53 10° SSE night (unlit)
02 Apr - 17:40:21 10° SSW 17:43:39 20° SE 17:47:16 10° E daylight
02 Apr - 19:25:13 10° WSW 19:29:56 65° SSE 19:35:30 10° E daylight
02 Apr - 21:11:43 10° W 21:16:59 86° N 21:23:15 10° E visible
02 Apr - 22:58:28 10° W 23:04:14 70° SSW 23:10:56 10° ESE visible
03 Apr - 00:45:44 10° W 00:51:12 31° SSW 00:57:12 10° SSE night (unlit)
03 Apr - 17:18:03 10° SSW 17:21:16 20° SE 17:24:44 10° E daylight
03 Apr - 19:02:56 10° WSW 19:07:31 65° SSE 19:12:54 10° E daylight
03 Apr - 20:49:25 10° W 20:54:32 86° N 21:00:36 10° E visible
03 Apr - 22:36:08 10° W 22:41:44 69° SSW 22:48:17 10° ESE visible
04 Apr - 00:23:24 10° W 00:28:40 30° SSW 00:34:30 10° SSE night (unlit)
04 Apr - 16:55:45 10° SSW 16:58:53 20° SE 17:02:14 10° E daylight
04 Apr - 18:40:39 10° WSW 18:45:07 65° SSE 18:50:20 10° E daylight
04 Apr - 20:27:08 10° W 20:32:06 85° N 20:37:59 10° E visible
04 Apr - 22:13:49 10° W 22:19:14 68° SSW 22:25:37 10° ESE visible
05 Apr - 00:01:03 10° W 00:06:08 28° SSW 00:11:47 10° SSE visible
05 Apr - 16:33:27 10° SSW 16:36:29 19° SE 16:39:45 10° E daylight
05 Apr - 18:18:22 10° WSW 18:22:45 65° SSE 18:27:46 10° E daylight
05 Apr - 20:04:52 10° W 20:09:40 85° N 20:15:22 10° E visible
05 Apr - 21:51:30 10° W 21:56:46 66° SSW 22:02:58 10° ESE visible
05 Apr - 23:38:44 10° W 23:43:37 27° SSW 23:49:03 10° SSE visible
06 Apr - 16:11:06 10° SSW 16:14:07 19° SE 16:17:17 10° E daylight
06 Apr - 17:56:06 10° WSW 18:00:22 65° SSE 18:05:15 10° E daylight
06 Apr - 19:42:35 10° W 19:47:16 85° N 19:52:46 10° E daylight
06 Apr - 21:29:13 10° W 21:34:18 65° SSW 21:40:19 10° ESE visible
06 Apr - 23:16:26 10° W 23:21:06 26° SSW 23:26:20 10° SSE visible
